Flag for U.S.A. Weather past 2 weeks in Amarillo, Texas, U.S.A.

Now
72 °F

Partly sunny.


Feels Like: 75 °F
Forecast: 63 / 87 °F
Wind: 12 mph from Southeast

Location: Amarillo International Airport

Current Time: Aug 28, 2014 at 9:10:15 PM

Latest Report: Aug 28, 2014 at 7:53 PM


Visibility: 10 mi

Pressure: 29.82 "Hg

Humidity: 68%

Dew point: 61 °F

Location of AmarilloLocation

Historic Weather in Amarillo — Graph

°F

Amarillo temperature yesterday

Maximum temperature yesterday: 90 °F (at 2:53 PM)
Minimum temperature yesterday: 66 °F (at 5:53 AM)
Average temperature yesterday: 75 °F

Past Weeks' High & Low Weather Summary

 TemperatureHumidityPressure
High96 °F (Aug 15, 1:53 PM)94% (Aug 19, 4:53 AM)30.14 "Hg (Aug 19, 4:53 AM)
Low64 °F (Aug 16, 5:02 PM)20% (Aug 28, 2:53 PM)29.71 "Hg (Aug 20, 5:53 PM)
Average79 °F54%29.86 "Hg
* Reported Aug 13 7:53 PM — Aug 28 7:53 PM, Amarillo, Weather by CustomWeather, © 2014

Note: Actual official high and low records may vary slightly from our data, if they occured in-between our weather recording intervals... More about our weather records

Advertising

Amarillo weather history for previous 24 hours

 ConditionsComfort  
Time TempWeatherWind HumidityBarometerVisibility
7:53 PM
Aug 28
72 °FPartly sunny.12 mph68%29.82 "Hg10 mi
6:53 PM75 °FScattered clouds.12 mph58%29.81 "Hg10 mi
5:53 PM77 °FOvercast.15 mph60%29.80 "Hg10 mi
4:53 PM80 °FOvercast.18 mph58%29.79 "Hg10 mi
3:53 PM89 °FPassing clouds.10 mph23%29.78 "Hg10 mi
2:53 PM91 °FSunny.6 mph20%29.80 "Hg10 mi
1:53 PM88 °FSunny.3 mph23%29.84 "Hg10 mi
12:53 PM87 °FSunny.8 mph24%29.86 "Hg10 mi
11:53 AM83 °FSunny.8 mph37%29.88 "Hg10 mi
10:53 AM80 °FSunny.10 mph42%29.88 "Hg10 mi
9:53 AM79 °FSunny.12 mph50%29.88 "Hg10 mi
8:53 AM75 °FSunny.12 mph64%29.90 "Hg10 mi
7:53 AM65 °FClear.8 mph91%29.91 "Hg9 mi
6:53 AM68 °FClear.6 mph84%29.90 "Hg10 mi
5:53 AM67 °FClear.9 mph85%29.88 "Hg10 mi
4:53 AM67 °FClear.12 mph85%29.90 "Hg10 mi
3:53 AM68 °FClear.12 mph84%29.88 "Hg10 mi
2:53 AM68 °FClear.10 mph84%29.89 "Hg10 mi
1:53 AM70 °FClear.13 mph79%29.90 "Hg10 mi
12:53 AM69 °FClear.10 mph84%29.94 "Hg10 mi
11:53 PM
Aug 27
69 °FClear.12 mph90%29.95 "Hg10 mi
10:53 PM71 °FClear.14 mph84%29.95 "Hg10 mi
9:53 PM71 °FClear.15 mph84%29.97 "Hg10 mi
Weather by CustomWeather, © 2014

See weather overviewHow to use our weather pages